Date,TemperatureHighF,TemperatureAvgF,TemperatureLowF,DewpointHighF,DewpointAvgF,DewpointLowF,HumidityHigh,HumidityAvg,HumidityLow,PressureMaxIn,PressureMinIn,WindSpeedMaxMPH,WindSpeedAvgMPH,GustSpeedMaxMPH,PrecipitationSumIn
2013-3-1,63.5,54.7,47.8,38.6,37.0,34.6,62,52,36,29.75,29.64,4,2,9,0.00
2013-3-2,63.0,55.1,37.6,38.3,31.8,26.3,93,44,25,29.76,29.67,8,4,17,0.00
2013-3-3,49.8,46.5,37.0,33.3,28.5,27.5,81,50,43,29.88,29.73,7,5,14,0.00
2013-3-4,77.2,57.9,31.1,41.5,27.6,16.9,91,38,12,29.97,29.84,5,1,8,0.00
2013-3-5,83.1,72.4,40.3,56.0,45.1,31.6,94,42,16,29.92,29.65,8,3,16,0.00
2013-3-6,66.4,51.9,44.8,62.3,33.1,27.8,93,50,24,29.87,29.60,10,3,17,0.00
2013-3-7,77.7,55.8,37.6,43.8,38.1,28.8,95,58,17,29.99,29.87,4,1,8,0.00
2013-3-8,70.0,55.9,37.0,51.8,45.7,36.8,99,73,32,29.98,29.89,4,1,9,0.00
2013-3-9,73.2,62.0,39.9,53.5,48.6,39.7,99,64,38,30.02,29.92,4,1,11,0.00
2013-3-10,81.3,72.4,47.5,61.4,54.9,47.2,99,56,39,29.97,29.86,5,1,11,0.00
2013-3-11,80.8,75.2,50.9,63.2,59.2,50.6,99,59,46,29.88,29.64,4,1,12,0.00
2013-3-12,73.6,66.2,56.5,70.1,58.3,48.0,99,77,49,29.76,29.58,4,1,9,0.09
2013-3-13,80.2,70.0,50.9,48.1,29.5,18.0,81,25,10,29.93,29.76,6,2,14,0.00
2013-3-14,71.1,60.0,43.7,37.5,29.3,23.4,71,33,18,30.05,29.85,4,1,10,0.00
2013-3-15,85.5,64.1,35.6,45.9,36.2,22.5,99,44,14,30.03,29.85,3,0,7,0.00
2013-3-16,90.3,77.3,51.4,53.8,47.1,38.1,91,37,18,29.90,29.72,6,2,14,0.00
2013-3-17,86.0,70.6,47.1,56.7,47.2,37.4,96,50,19,29.85,29.71,4,1,11,0.00
2013-3-18,88.3,78.2,61.3,64.7,62.5,56.5,96,60,39,29.79,29.59,5,1,11,0.00
2013-3-19,91.6,77.1,61.7,66.4,59.5,56.7,93,58,32,29.74,29.62,4,1,10,0.00
2013-3-20,72.9,64.9,53.2,59.8,54.1,49.6,99,69,52,29.76,29.61,5,2,10,0.06
2013-3-21,76.8,64.4,43.3,48.5,26.5,10.5,99,30,10,29.70,29.59,6,2,11,0.01
2013-3-22,72.7,65.1,45.1,47.7,38.6,32.7,80,40,26,29.81,29.68,4,1,8,0.00
2013-3-23,72.0,60.8,52.0,67.5,59.7,49.3,99,96,84,29.74,29.54,2,0,7,1.76
2013-3-24,91.6,77.5,62.1,76.1,69.5,61.8,99,80,43,29.54,29.25,8,3,17,0.27
2013-3-25,73.6,65.4,52.0,63.0,29.8,15.3,90,29,11,29.71,29.36,8,3,17,0.00
2013-3-26,64.8,57.7,41.0,30.7,25.8,22.8,58,30,21,29.95,29.78,6,3,16,0.00
2013-3-27,71.8,58.9,37.8,34.7,29.3,24.9,72,35,18,30.05,29.95,5,1,12,0.00
2013-3-28,76.3,62.1,36.7,43.1,36.9,14.3,98,45,10,30.04,29.94,4,1,9,0.00
2013-3-29,82.4,68.5,39.2,53.3,35.4,22.3,99,39,12,30.08,29.94,4,1,7,0.00
2013-3-30,88.2,73.6,43.3,56.9,43.7,35.0,99,42,16,30.01,29.83,5,1,12,0.00
2013-3-31,90.7,76.4,52.2,57.9,53.1,46.3,88,48,28,29.87,29.70,7,2,13,0.00